Location: ???????
(55.8930°N, 38.0586°E)
Time: 16:20:23
(UTC+00:00)

Thor Agena Rocket - Pass Details

Date: 14 April 2024
Orbit: 757 x 805 km, 99.1° (Epoch: 23 May)

Event Time Altitude Azimuth Distance (km) Brightness Sun altitude
Rises 01:15:58 0° 18° (NNE) 3,235 7.6 -9.5°
Reaches altitude 10° 01:18:18 10° 20° (NNE) 2,303 6.8 -9.2°
Maximum altitude 01:23:21 73° 106° (ESE) 797 3.7 -8.6°
Drops below altitude 10° 01:28:23 10° 191° (S) 2,287 5.6 -8.0°
Sets 01:30:41 0° 193° (SSW) 3,211 6.3 -7.7°
